[[{"header":{"parameterUnit":"m.s-1","parameterCategory":2,"la1":30.2991,"la2":30.254,"lo1":-89.0895,"lo2":-89.0444,"dy":0.0017,"dx":0.0017,"nx":28,"ny":28,"refTime":"2025-08-17T21:00:00:Z","depth":"0","parameterNumber":2,"parameterNumberName":"U-component_of_CURRENTS"},"data":[0,0,0,0,0,0,0,0,0,0,0,0,0,0,0,0,0,0,0,0,0,0,0,0,0,0,0,0,0,0,0,0,0,0,0,0,0,0,0,0,0,0,0,0,0,0,0,0,0,0,0,0,0,0,0,0,0,0,-0.1519,-0.1518,0,-0.1398,-0.1396,-0.1394,-0.132,-0.1319,-0.1319,-0.1319,-0.1175,-0.1172,-0.1168,0,0,0,0,0,0,0,0,0,0,0,0,0,-0.1565,-0.1565,-0.1519,-0.1518,-0.1517,-0.1398,-0.1396,-0.1394,-0.132,-0.1319,-0.1319,-0.1319,-0.1176,-0.1172,-0.1167,0,0,0,0,0,0,0,0,0,0,0,0,0,-0.1502,-0.1565,-0.1519,-0.1467,-0.1462,-0.1398,-0.1396,-0.1393,-0.132,-0.1319,-0.1319,-0.1319,-0.1178,-0.1172,-0.1167,-0.1136,0,0,-0.115,-0.1147,0,0,0,0,0,0,0,0,-0.1506,-0.15,-0.1476,-0.1471,-0.1465,-0.1376,-0.1359,-0.1307,-0.132,-0.137,-0.1319,-0.1319,-0.1242,-0.1232,-0.1205,-0.1129,-0.1123,-0.1149,-0.1146,-0.1143,-0.1142,0,0,0,0,0,0,0,-0.151,-0.1504,-0.1468,-0.1475,-0.1468,-0.1409,-0.14,-0.1348,-0.1306,-0.1366,-0.1361,-0.1352,-0.1239,-0.1211,-0.1201,-0.1121,-0.1149,-0.1144,-0.1141,-0.1139,-0.1084,-0.1085,0,0,0,0,0,0,-0.1538,-0.1509,-0.1472,-0.1464,-0.1489,-0.1409,-0.1399,-0.1402,-0.1307,-0.1293,-0.1353,-0.1349,-0.122,-0.1208,-0.1196,-0.1223,-0.1144,-0.1138,-0.1135,-0.1082,-0.1084,-0.1086,0,0,0,0,0,0,-0.154,-0.1537,-0.1477,-0.1485,-0.1474,-0.141,-0.1412,-0.14,-0.1368,-0.1298,-0.1283,-0.1334,-0.122,-0.1204,-0.1167,-0.1215,-0.1136,-0.1131,-0.1079,-0.1082,-0.1085,-0.1234,0,0,0,0,0,0,-0.1542,-0.1538,-0.1543,-0.1488,-0.1475,-0.1446,-0.1413,-0.1398,-0.1365,-0.1359,-0.1277,-0.1263,-0.1218,-0.1176,-0.1162,-0.1206,-0.1126,-0.1077,-0.1081,-0.1084,-0.1227,-0.1241,-0.1254,0,0,0,0,0,-0.1544,-0.1547,-0.1545,-0.1539,-0.1487,-0.1447,-0.1434,-0.1384,-0.1365,-0.1354,-0.1312,-0.1266,-0.1189,-0.1172,-0.1155,-0.1199,-0.1075,-0.108,-0.1084,-0.122,-0.1238,-0.1254,0,0,0,0,0,0,-0.1553,-0.1539,-0.1534,-0.153,-0.1499,-0.1436,-0.1413,-0.1387,-0.1342,-0.1334,-0.1272,-0.1256,-0.1253,-0.1197,-0.1181,-0.1195,-0.1132,-0.1133,-0.1242,-0.1258,-0.1271,-0.1275,-0.1122,0,0,0,0,0,-0.1566,-0.1575,-0.1543,-0.1539,-0.1524,-0.1472,-0.1447,-0.1419,-0.1375,-0.1353,-0.1306,-0.1266,-0.1256,-0.1233,-0.1203,-0.1189,-0.1154,-0.1211,-0.1225,-0.1237,-0.1231,-0.1266,-0.1284,-0.11,-0.11,-0.11,0,0,-0.1568,-0.1561,-0.1565,-0.1543,-0.1509,-0.1498,-0.1455,-0.1421,-0.1427,-0.1345,-0.1331,-0.1307,-0.1264,-0.1271,-0.1265,-0.1228,-0.1267,-0.1243,-0.1254,-0.124,-0.1273,-0.1291,-0.1307,-0.1103,-0.1102,-0.1102,0,0,-0.1569,-0.157,-0.1574,-0.1559,-0.1526,-0.1506,-0.1504,-0.1453,-0.1445,-0.1425,-0.1402,-0.1412,-0.1343,-0.136,-0.1353,-0.1418,-0.1345,-0.1401,-0.1464,-0.1501,-0.1517,-0.153,-0.1491,-0.1499,-0.1402,-0.1403,-0.1403,0,-0.1571,-0.1576,-0.1564,-0.1558,-0.1553,-0.152,-0.1518,-0.1509,-0.1461,-0.1469,-0.1436,-0.1427,-0.14,-0.1453,-0.1481,-0.1455,-0.1422,-0.1409,-0.1522,-0.1534,-0.1545,-0.1501,-0.1509,-0.141,-0.1409,-0.1409,-0.1408,0,-0.1573,-0.1577,-0.157,-0.1576,-0.1573,-0.1561,-0.1562,-0.1565,-0.1554,-0.1546,-0.1581,-0.1563,-0.1556,-0.1574,-0.1537,-0.1618,-0.155,-0.1545,-0.1484,-0.1573,-0.152,-0.1526,-0.1421,-0.1418,-0.1416,-0.1414,0,0,-0.1577,-0.1576,-0.1574,-0.1585,-0.1584,-0.1581,-0.1617,-0.1638,-0.166,-0.1656,-0.1689,-0.1722,-0.1708,-0.1701,-0.1691,-0.1724,-0.1782,-0.1659,-0.1658,-0.1625,-0.1797,-0.1688,-0.1682,-0.1793,-0.1795,-0.1797,-0.1721,0,-0.1578,-0.1582,-0.159,-0.161,-0.1613,-0.1627,-0.1661,-0.1687,-0.1698,-0.1721,-0.1759,-0.1771,-0.1761,-0.1759,-0.1806,-0.1781,-0.1804,-0.1798,-0.1708,-0.1704,-0.1604,-0.1689,-0.1577,-0.1496,-0.1726,-0.1726,-0.1727,0,-0.158,-0.1584,-0.1598,-0.1635,-0.1638,-0.1656,-0.1715,-0.1739,-0.1786,-0.179,-0.1835,-0.1831,-0.189,-0.1862,-0.1894,-0.188,-0.1846,-0.1829,-0.1826,-0.1674,-0.1607,-0.1447,-0.1495,-0.149,-0.1734,-0.1734,-0.1733,0,-0.1585,-0.16,-0.1618,-0.1625,-0.1654,-0.1681,-0.1707,-0.1755,-0.1772,-0.1828,-0.1825,-0.19,-0.19,-0.1924,-0.1879,-0.1884,-0.1877,-0.1885,-0.1757,-0.1746,-0.1605,-0.1578,-0.1643,-0.1916,-0.1916,-0.1916,-0.1916,0,-0.1589,-0.1602,-0.1618,-0.1621,-0.165,-0.1683,-0.1715,-0.1751,-0.1787,-0.1788,-0.1851,-0.1854,-0.1914,-0.1906,-0.189,-0.1818,-0.1889,-0.1769,-0.1739,-0.1648,-0.1627,-0.1575,-0.1603,-0.1913,-0.1914,-0.1914,-0.1915,0,-0.1579,-0.1591,-0.1603,-0.1633,-0.1643,-0.166,-0.1688,-0.1695,-0.1746,-0.1748,-0.1757,-0.1811,-0.1795,-0.1816,-0.182,-0.1794,-0.1724,-0.1716,-0.1562,-0.1517,-0.1399,-0.1438,-0.145,-0.1409,-0.1577,-0.1574,-0.1571,0,-0.1571,-0.1571,-0.1589,-0.1577,-0.1582,-0.1605,-0.1598,-0.1658,-0.1655,-0.17,-0.1683,-0.1693,-0.1675,-0.164,-0.1586,-0.1531,-0.1588,-0.1409,-0.1431,-0.1381,-0.1404,-0.1458,-0.1428,-0.1288,-0.1283,-0.1279,-0.1276,0,-0.153,-0.1532,-0.1526,-0.1503,-0.1494,-0.1487,-0.1491,-0.1489,-0.1534,-0.1539,-0.1531,-0.1535,-0.1491,-0.1395,-0.1328,-0.1298,-0.1377,-0.1329,-0.1351,-0.1245,-0.1237,-0.1183,-0.1303,-0.1244,-0.1247,-0.1249,-0.1251,-0.1252,-0.1473,-0.1455,-0.1426,-0.1402,-0.1385,-0.1337,-0.128,-0.1295,-0.1273,-0.1233,-0.1338,-0.1249,-0.1234,-0.1118,-0.1106,-0.0998,-0.1102,-0.0991,-0.1053,-0.1119,-0.1068,-0.1076,-0.0948,-0.0949,-0.0951,-0.0952,-0.0953,0,-0.1373,-0.1348,-0.1317,-0.1259,-0.1177,-0.1211,-0.1162,-0.1079,-0.0999,-0.0994,-0.0982,-0.0847,-0.0823,-0.0818,-0.0756,-0.0745,-0.0768,-0.0768,-0.0845,-0.0836,-0.0886,-0.0861,-0.062,-0.062,-0.062,-0.062,-0.062,-0.062,-0.1308,-0.1239,-0.1221,-0.1052,-0.0998,-0.0843,-0.0778,-0.07,-0.0649,-0.0496,-0.0368,-0.0355,-0.0411,-0.0652,-0.07,-0.0683,-0.0725,-0.0688,-0.0763,-0.0822,-0.0849,-0.0875,-0.0859,-0.0622,-0.0622,-0.0651,-0.0652,-0.0652]},{"header":{"parameterUnit":"m.s-1","parameterCategory":2,"la1":30.2991,"la2":30.254,"lo1":-89.0895,"lo2":-89.0444,"dy":0.0017,"dx":0.0017,"nx":28,"ny":28,"refTime":"2025-08-17T21:00:00:Z","depth":"0","parameterNumber":3,"parameterNumberName":"V-component_of_CURRENTS"},"data":[0,0,0,0,0,0,0,0,0,0,0,0,0,0,0,0,0,0,0,0,0,0,0,0,0,0,0,0,0,0,0,0,0,0,0,0,0,0,0,0,0,0,0,0,0,0,0,0,0,0,0,0,0,0,0,0,0,0,0.03,0.0301,0,0.0395,0.0396,0.0397,0.0448,0.0448,0.0449,0.0449,0.0511,0.0513,0.0514,0,0,0,0,0,0,0,0,0,0,0,0,0,0.0187,0.0188,0.03,0.0302,0.0303,0.0395,0.0396,0.0397,0.0448,0.0448,0.0449,0.0449,0.0511,0.0513,0.0514,0,0,0,0,0,0,0,0,0,0,0,0,0,0.0252,0.0189,0.03,0.0341,0.0346,0.0395,0.0396,0.0398,0.0448,0.0448,0.0449,0.0449,0.051,0.0512,0.0515,0.0519,0,0,0.0521,0.0522,0,0,0,0,0,0,0,0,0.0249,0.0256,0.0333,0.0338,0.0344,0.0412,0.038,0.0437,0.0448,0.0407,0.0449,0.0449,0.0476,0.0481,0.0496,0.0522,0.0524,0.0521,0.0522,0.0523,0.0524,0,0,0,0,0,0,0,0.0244,0.0253,0.0336,0.0335,0.0341,0.0363,0.0372,0.0391,0.0436,0.041,0.0415,0.0429,0.0479,0.0493,0.0497,0.0525,0.0521,0.0523,0.0524,0.0525,0.048,0.0477,0,0,0,0,0,0,0.0235,0.0248,0.0333,0.0339,0.0298,0.0365,0.0375,0.0388,0.0436,0.0445,0.0428,0.0431,0.049,0.0495,0.05,0.0451,0.0523,0.0525,0.0526,0.0482,0.0479,0.0477,0,0,0,0,0,0,0.0232,0.0241,0.0329,0.0297,0.031,0.0366,0.038,0.039,0.0404,0.0451,0.0458,0.0433,0.049,0.0497,0.0497,0.0456,0.0526,0.0528,0.0485,0.0481,0.0478,0.039,0,0,0,0,0,0,0.0228,0.024,0.024,0.0297,0.0312,0.0339,0.038,0.0391,0.0413,0.0417,0.0457,0.0464,0.0491,0.0494,0.0499,0.046,0.053,0.0488,0.0483,0.0479,0.0396,0.0384,0.0373,0,0,0,0,0,0.0224,0.0222,0.0239,0.0249,0.0312,0.0339,0.0347,0.0388,0.0412,0.0405,0.043,0.0462,0.0468,0.0494,0.0501,0.0462,0.049,0.0485,0.0479,0.0401,0.0386,0.0374,0,0,0,0,0,0,0.0171,0.0229,0.0248,0.0264,0.029,0.0347,0.0352,0.0381,0.0399,0.0404,0.0447,0.0454,0.0433,0.0457,0.0485,0.043,0.0478,0.0474,0.0416,0.0402,0.0391,0.0378,0.0531,0,0,0,0,0,0.0159,0.0173,0.0225,0.0233,0.0246,0.0297,0.0314,0.0341,0.037,0.038,0.0405,0.042,0.0416,0.0418,0.0424,0.0407,0.045,0.0378,0.0367,0.0357,0.0348,0.0388,0.038,0.0458,0.0458,0.0459,0,0,0.0138,0.0175,0.018,0.0222,0.025,0.0241,0.0307,0.0326,0.0305,0.0382,0.0359,0.0387,0.0402,0.0374,0.0366,0.0391,0.0354,0.035,0.0342,0.0338,0.0381,0.0374,0.0368,0.0455,0.0455,0.0456,0,0,0.0101,0.0136,0.0132,0.0145,0.0184,0.0206,0.0206,0.0253,0.0259,0.0254,0.0286,0.0292,0.0299,0.0297,0.0297,0.0226,0.0294,0.0218,0.0154,0.0193,0.0187,0.0183,0.0225,0.0225,0.0212,0.0212,0.0212,0,0.0073,0.0073,0.013,0.0121,0.0115,0.0179,0.0149,0.0161,0.0195,0.0195,0.0228,0.024,0.0257,0.022,0.0186,0.0201,0.0241,0.021,0.0181,0.0178,0.0176,0.0219,0.0221,0.0207,0.0207,0.0208,0.0208,0,0.0028,0.0019,0.0014,0.0016,0.0013,0.0003,0.0022,0.002,0.0046,0.007,0.0062,0.0102,0.0112,0.0105,0.0124,0.0094,0.0134,0.0168,0.0224,0.0163,0.0212,0.0215,0.02,0.0202,0.0203,0.0204,0,0,-0.0015,-0.0018,-0.0023,-0.0053,-0.0045,-0.0055,-0.0094,-0.0105,-0.0121,-0.0082,-0.0096,-0.0097,-0.0037,-0.0036,-0.0002,0.0022,0.0034,0.0077,0.0082,0.0132,0.0127,0.0168,0.0176,0.0075,0.0075,0.0075,0.0168,0,-0.0073,-0.0124,-0.011,-0.0189,-0.0223,-0.0199,-0.0244,-0.0244,-0.022,-0.0217,-0.0163,-0.0158,-0.0105,-0.0091,-0.0061,0.0012,0.0039,0.0006,0.0166,0.017,0.0226,0.018,0.0257,0.0348,0.0172,0.0173,0.0173,0,-0.0126,-0.0159,-0.0236,-0.0298,-0.0309,-0.0346,-0.0391,-0.0415,-0.0392,-0.0367,-0.0327,-0.0265,-0.0237,-0.0171,-0.0063,-0.0081,0.0004,0.0072,0.0078,0.015,0.0217,0.0379,0.0362,0.0512,0.0179,0.0179,0.0178,0,-0.0188,-0.0252,-0.0322,-0.0343,-0.0395,-0.043,-0.0454,-0.0453,-0.048,-0.0445,-0.0446,-0.0366,-0.0337,-0.0214,-0.0069,-0.0064,0.0073,0.0105,0.0221,0.0226,0.0339,0.0353,0.0498,0.0177,0.0177,0.0177,0.0177,0,-0.0255,-0.0313,-0.0355,-0.0395,-0.049,-0.0493,-0.0564,-0.0568,-0.0569,-0.0611,-0.0519,-0.0538,-0.0347,-0.0242,-0.0094,0.0079,0.0062,0.0201,0.0248,0.0307,0.0317,0.0491,0.0534,0.018,0.018,0.0179,0.0178,0,-0.0305,-0.0328,-0.0418,-0.0489,-0.0517,-0.0578,-0.0645,-0.0684,-0.0678,-0.0728,-0.0724,-0.0661,-0.0508,-0.0292,-0.0088,0.0031,0.0308,0.0272,0.033,0.0381,0.0614,0.0648,0.0796,0.0902,0.0407,0.0409,0.041,0,-0.0333,-0.0379,-0.0484,-0.0541,-0.0573,-0.0655,-0.0709,-0.0733,-0.0781,-0.0822,-0.086,-0.0737,-0.0649,-0.0316,-0.002,0.029,0.0394,0.0477,0.0488,0.0629,0.0702,0.0712,0.0791,0.0608,0.0611,0.0613,0.0615,0,-0.0391,-0.0418,-0.0486,-0.0602,-0.0679,-0.0777,-0.0856,-0.0918,-0.0956,-0.1006,-0.106,-0.0988,-0.0633,-0.0252,0.0178,0.0345,0.0598,0.0529,0.0674,0.0857,0.0881,0.1006,0.0542,0.0635,0.0633,0.0631,0.063,0.063,-0.0421,-0.0481,-0.0558,-0.0665,-0.0761,-0.0877,-0.0941,-0.1039,-0.1134,-0.1181,-0.1166,-0.0977,-0.0366,0.026,0.0399,0.0832,0.0771,0.0958,0.0984,0.0979,0.1084,0.0651,0.0793,0.0791,0.0791,0.079,0.0789,0,-0.0463,-0.0516,-0.0616,-0.0739,-0.0833,-0.0875,-0.1018,-0.1067,-0.1179,-0.1167,-0.1163,-0.0464,0.006,0.0579,0.1176,0.1311,0.1334,0.1381,0.1437,0.1497,0.1135,0.115,0.1377,0.1377,0.1377,0.1377,0.1377,0.1376,-0.0483,-0.0567,-0.0615,-0.0759,-0.0834,-0.0937,-0.1004,-0.109,-0.1084,-0.0908,-0.0557,-0.0263,0.0586,0.1273,0.1706,0.1728,0.1878,0.1831,0.19,0.1677,0.164,0.1605,0.1632,0.1957,0.1958,0.2295,0.2298,0.2301]}],[{"header":{"parameterUnit":"m.s-1","parameterCategory":2,"la1":30.2991,"la2":30.254,"lo1":-89.0895,"lo2":-89.0444,"dy":0.0017,"dx":0.0017,"nx":28,"ny":28,"refTime":"2025-08-17T21:00:00:Z","depth":"2","parameterNumber":2,"parameterNumberName":"U-component_of_CURRENTS"},"data":[0,0,0,0,0,0,0,0,0,0,0,0,0,0,0,0,0,0,0,0,0,0,0,0,0,0,0,0,0,0,0,0,0,0,0,0,0,0,0,0,0,0,0,0,0,0,0,0,0,0,0,0,0,0,0,0,0,0,-0.1783,-0.1785,0,-0.2027,-0.203,-0.2033,-0.2157,-0.2157,-0.2156,-0.2156,-0.238,-0.2387,-0.2393,0,0,0,0,0,0,0,0,0,0,0,0,0,-0.1583,-0.1586,-0.1783,-0.1785,-0.1788,-0.2026,-0.203,-0.2034,-0.2157,-0.2157,-0.2156,-0.2155,-0.2378,-0.2386,-0.2394,0,0,0,0,0,0,0,0,0,0,0,0,0,-0.1739,-0.1586,-0.1782,-0.1872,-0.1882,-0.2025,-0.203,-0.2035,-0.2158,-0.2157,-0.2156,-0.2155,-0.2375,-0.2385,-0.2395,-0.2473,0,0,-0.2425,-0.2429,0,0,0,0,0,0,0,0,-0.173,-0.1747,-0.1857,-0.1866,-0.1878,-0.2054,-0.2042,-0.2178,-0.2158,-0.2061,-0.2155,-0.2154,-0.2265,-0.2284,-0.2343,-0.2483,-0.2493,-0.2425,-0.2431,-0.2436,-0.2438,0,0,0,0,0,0,0,-0.1719,-0.1738,-0.1887,-0.1859,-0.1872,-0.1954,-0.1975,-0.207,-0.217,-0.2069,-0.2077,-0.2092,-0.2272,-0.2333,-0.2349,-0.2496,-0.2425,-0.2434,-0.244,-0.2444,-0.2712,-0.2713,0,0,0,0,0,0,-0.1667,-0.1727,-0.1879,-0.1894,-0.1792,-0.1957,-0.1981,-0.2004,-0.217,-0.2193,-0.2093,-0.2097,-0.2317,-0.2337,-0.2357,-0.2478,-0.2436,-0.2445,-0.245,-0.2711,-0.2713,-0.2714,0,0,0,0,0,0,-0.1662,-0.1678,-0.1869,-0.181,-0.1838,-0.196,-0.1987,-0.2009,-0.2095,-0.2187,-0.221,-0.2155,-0.2317,-0.2343,-0.2502,-0.2486,-0.2449,-0.2458,-0.271,-0.2712,-0.2713,-0.2706,0,0,0,0,0,0,-0.1655,-0.1675,-0.1704,-0.1806,-0.184,-0.1983,-0.1987,-0.2015,-0.21,-0.2109,-0.2248,-0.2267,-0.2318,-0.2488,-0.2512,-0.2498,-0.2466,-0.2708,-0.271,-0.2713,-0.2705,-0.2708,-0.271,0,0,0,0,0,-0.1647,-0.1695,-0.1704,-0.1724,-0.1865,-0.1985,-0.2014,-0.21,-0.2104,-0.2169,-0.2274,-0.2264,-0.2515,-0.2501,-0.2528,-0.2516,-0.2707,-0.271,-0.2712,-0.2704,-0.2707,-0.271,0,0,0,0,0,0,-0.1635,-0.1714,-0.1726,-0.1797,-0.1889,-0.2004,-0.2058,-0.2115,-0.2251,-0.225,-0.2337,-0.2367,-0.2478,-0.2518,-0.2498,-0.2596,-0.2586,-0.2595,-0.257,-0.2574,-0.2576,-0.253,-0.2474,0,0,0,0,0,-0.1635,-0.1705,-0.1773,-0.1849,-0.1859,-0.1958,-0.2022,-0.2081,-0.2193,-0.2252,-0.2374,-0.2455,-0.2509,-0.2563,-0.2645,-0.2742,-0.2689,-0.2733,-0.2735,-0.2737,-0.2717,-0.2636,-0.2628,-0.2723,-0.2723,-0.2723,0,0,-0.1659,-0.1712,-0.1755,-0.1854,-0.1906,-0.1963,-0.1998,-0.2089,-0.2165,-0.2253,-0.2427,-0.2494,-0.2542,-0.2639,-0.2684,-0.2674,-0.2686,-0.2741,-0.2742,-0.272,-0.2638,-0.2628,-0.2619,-0.2725,-0.2725,-0.2724,0,0,-0.1715,-0.1759,-0.1803,-0.1869,-0.1946,-0.2002,-0.2024,-0.2159,-0.223,-0.2393,-0.2436,-0.2513,-0.2673,-0.2692,-0.2704,-0.2773,-0.2706,-0.2782,-0.276,-0.2683,-0.2673,-0.2663,-0.2585,-0.2568,-0.2777,-0.2777,-0.2777,0,-0.1733,-0.1789,-0.1847,-0.189,-0.1926,-0.2006,-0.2038,-0.2139,-0.2345,-0.2393,-0.2441,-0.2609,-0.2671,-0.2694,-0.2719,-0.277,-0.2718,-0.2743,-0.268,-0.2669,-0.2659,-0.2581,-0.2563,-0.2777,-0.2777,-0.2777,-0.2777,0,-0.1799,-0.1845,-0.187,-0.1936,-0.1994,-0.2054,-0.213,-0.2253,-0.2332,-0.2413,-0.2513,-0.2616,-0.2687,-0.2707,-0.2742,-0.2701,-0.2684,-0.2691,-0.2658,-0.2648,-0.2569,-0.2549,-0.2777,-0.2777,-0.2777,-0.2777,0,0,-0.1818,-0.1893,-0.1905,-0.1909,-0.2007,-0.2055,-0.216,-0.2249,-0.2273,-0.2466,-0.2495,-0.2608,-0.2639,-0.2655,-0.2693,-0.2646,-0.2548,-0.2643,-0.2639,-0.2541,-0.2363,-0.231,-0.2284,-0.2537,-0.2533,-0.2531,-0.2334,0,-0.1834,-0.1893,-0.1937,-0.1994,-0.1994,-0.2083,-0.216,-0.2263,-0.2334,-0.2417,-0.2476,-0.2525,-0.2616,-0.2619,-0.2597,-0.2563,-0.2497,-0.2599,-0.2409,-0.2403,-0.2335,-0.226,-0.2135,-0.1945,-0.2315,-0.2312,-0.2309,0,-0.1854,-0.1885,-0.1911,-0.1956,-0.1955,-0.202,-0.2078,-0.2164,-0.2264,-0.2311,-0.237,-0.242,-0.2436,-0.2479,-0.2403,-0.2463,-0.2407,-0.2372,-0.2363,-0.2296,-0.2313,-0.2018,-0.1896,-0.2277,-0.2279,-0.2282,-0.2284,0,-0.1805,-0.1861,-0.1868,-0.1895,-0.1965,-0.2,-0.2058,-0.2141,-0.2173,-0.2231,-0.2235,-0.2273,-0.2278,-0.2234,-0.2248,-0.2291,-0.212,-0.2157,-0.2049,-0.2045,-0.189,-0.1878,-0.2035,-0.2035,-0.2036,-0.2036,-0.2037,0,-0.1789,-0.1808,-0.1844,-0.1867,-0.186,-0.193,-0.1934,-0.2012,-0.2061,-0.2065,-0.2164,-0.216,-0.2211,-0.2173,-0.2163,-0.2053,-0.2047,-0.2004,-0.1973,-0.1889,-0.1879,-0.2142,-0.2157,-0.2029,-0.2031,-0.2032,-0.2033,0,-0.1733,-0.1778,-0.1777,-0.1825,-0.184,-0.1834,-0.189,-0.189,-0.1949,-0.1949,-0.1969,-0.2043,-0.1989,-0.2014,-0.1917,-0.1919,-0.1826,-0.1783,-0.1693,-0.1655,-0.1817,-0.1834,-0.1596,-0.1592,-0.1588,-0.1586,-0.1583,0,-0.172,-0.1707,-0.1727,-0.171,-0.1732,-0.1742,-0.1758,-0.184,-0.1839,-0.1884,-0.1877,-0.1855,-0.1838,-0.1706,-0.166,-0.156,-0.1685,-0.1408,-0.1467,-0.1768,-0.1763,-0.1786,-0.1808,-0.1255,-0.125,-0.1247,-0.1243,0,-0.1653,-0.1654,-0.1639,-0.161,-0.161,-0.1595,-0.1635,-0.1628,-0.171,-0.171,-0.1703,-0.1684,-0.1588,-0.1452,-0.1355,-0.1306,-0.1422,-0.1323,-0.1595,-0.1415,-0.1438,-0.1438,-0.1471,-0.1208,-0.1212,-0.1214,-0.1216,-0.1218,-0.1597,-0.1537,-0.1518,-0.1467,-0.1462,-0.1446,-0.1423,-0.1459,-0.1452,-0.1445,-0.1515,-0.1438,-0.1406,-0.118,-0.1094,-0.1028,-0.1136,-0.1114,-0.1129,-0.1147,-0.1172,-0.1191,-0.0917,-0.0919,-0.0921,-0.0922,-0.0923,0,-0.1478,-0.1431,-0.1387,-0.133,-0.128,-0.1328,-0.1322,-0.1282,-0.1241,-0.1265,-0.125,-0.1098,-0.0982,-0.0947,-0.0772,-0.0735,-0.0755,-0.0721,-0.0761,-0.0795,-0.0825,-0.0838,-0.0492,-0.0491,-0.049,-0.0489,0,0,-0.1418,-0.1314,-0.1269,-0.1148,-0.1129,-0.1054,-0.1031,-0.0993,-0.0987,-0.0926,-0.089,-0.0964,-0.0941,-0.0741,-0.0675,-0.056,-0.0685,-0.0527,-0.0871,-0.0955,-0.0985,-0.1043,-0.1098,0,0,0,0,0]},{"header":{"parameterUnit":"m.s-1","parameterCategory":2,"la1":30.2991,"la2":30.254,"lo1":-89.0895,"lo2":-89.0444,"dy":0.0017,"dx":0.0017,"nx":28,"ny":28,"refTime":"2025-08-17T21:00:00:Z","depth":"2","parameterNumber":3,"parameterNumberName":"V-component_of_CURRENTS"},"data":[0,0,0,0,0,0,0,0,0,0,0,0,0,0,0,0,0,0,0,0,0,0,0,0,0,0,0,0,0,0,0,0,0,0,0,0,0,0,0,0,0,0,0,0,0,0,0,0,0,0,0,0,0,0,0,0,0,0,-0.0216,-0.0215,0,-0.0101,-0.01,-0.0098,0.0016,0.0017,0.0019,0.002,0.0368,0.0376,0.0384,0,0,0,0,0,0,0,0,0,0,0,0,0,-0.0238,-0.0238,-0.0216,-0.0215,-0.0214,-0.0102,-0.01,-0.0098,0.0016,0.0017,0.0019,0.002,0.0365,0.0375,0.0384,0,0,0,0,0,0,0,0,0,0,0,0,0,-0.0183,-0.0239,-0.0216,-0.0146,-0.0139,-0.0102,-0.01,-0.0097,0.0016,0.0018,0.0019,0.0021,0.0362,0.0374,0.0386,0.0426,0,0,0.0423,0.0429,0,0,0,0,0,0,0,0,-0.0186,-0.0182,-0.0158,-0.0151,-0.0143,-0.0058,0.002,0.0088,0.0015,-0.0039,0.002,0.0022,0.0243,0.0265,0.0285,0.0442,0.0457,0.0424,0.0432,0.0437,0.044,0,0,0,0,0,0,0,-0.0191,-0.0186,-0.0167,-0.0157,-0.0148,-0.0087,-0.0078,0.0033,0.0098,-0.0034,-0.0026,-0.002,0.025,0.0272,0.0295,0.0463,0.0424,0.0435,0.0442,0.0447,0.0785,0.0787,0,0,0,0,0,0,-0.022,-0.019,-0.017,-0.0164,-0.0165,-0.0089,-0.0078,-0.0084,0.0092,0.0118,-0.0022,-0.0016,0.0251,0.028,0.0308,0.0471,0.0437,0.0448,0.0455,0.0784,0.0786,0.0787,0,0,0,0,0,0,-0.0221,-0.022,-0.0175,-0.0176,-0.0167,-0.0092,-0.0098,-0.0083,-0.0039,0.0098,0.0129,0.0008,0.0253,0.029,0.0474,0.0482,0.0454,0.0465,0.0782,0.0784,0.0786,0.0732,0,0,0,0,0,0,-0.0222,-0.0221,-0.0225,-0.0179,-0.0168,-0.0143,-0.01,-0.0082,-0.0041,-0.0031,0.0134,0.0166,0.0257,0.0456,0.0486,0.0498,0.0475,0.078,0.0783,0.0786,0.0731,0.0732,0.0732,0,0,0,0,0,-0.0224,-0.0239,-0.0226,-0.0223,-0.018,-0.0143,-0.0131,-0.0068,-0.0042,-0.0022,0.0129,0.0162,0.0494,0.0469,0.0504,0.0519,0.0778,0.0782,0.0785,0.0731,0.0732,0.0732,0,0,0,0,0,0,-0.0241,-0.0228,-0.0213,-0.022,-0.0181,-0.0124,-0.0111,-0.0068,0.0055,0.0078,0.0217,0.0262,0.0414,0.0482,0.045,0.0624,0.0627,0.0638,0.0574,0.0575,0.0576,0.0523,0.0485,0,0,0,0,0,-0.0255,-0.0263,-0.0231,-0.0232,-0.0226,-0.0169,-0.0144,-0.0103,-0.0001,0.0051,0.0194,0.033,0.0447,0.0528,0.0647,0.0762,0.0746,0.0784,0.0784,0.0784,0.0765,0.0773,0.0771,0.0799,0.0799,0.0799,0,0,-0.0264,-0.0255,-0.0258,-0.0236,-0.0209,-0.02,-0.0147,-0.0119,-0.0077,0.0075,0.0221,0.035,0.0481,0.0615,0.0683,0.0681,0.0761,0.0789,0.0787,0.0768,0.0776,0.0773,0.077,0.0802,0.0801,0.0801,0,0,-0.029,-0.0282,-0.0301,-0.0279,-0.0249,-0.0214,-0.0208,-0.0123,-0.0054,0.0084,0.0203,0.0355,0.0542,0.065,0.0715,0.0789,0.0766,0.0809,0.0774,0.0782,0.0778,0.0775,0.0705,0.0696,0.0806,0.0806,0.0806,0,-0.0297,-0.0319,-0.0294,-0.0304,-0.0294,-0.0228,-0.0237,-0.0166,-0.0006,0.0067,0.0125,0.0413,0.0547,0.0679,0.0718,0.0787,0.0752,0.0758,0.0776,0.0773,0.077,0.0701,0.0692,0.0803,0.0804,0.0804,0.0804,0,-0.0339,-0.0349,-0.0359,-0.0356,-0.0339,-0.0331,-0.0261,-0.0174,-0.008,0.0009,0.019,0.0385,0.0546,0.0607,0.0697,0.0755,0.072,0.0772,0.0758,0.0763,0.0691,0.0682,0.08,0.0801,0.0802,0.0802,0,0,-0.037,-0.0388,-0.0389,-0.0398,-0.0368,-0.0357,-0.0291,-0.0207,-0.0166,0.0027,0.0103,0.035,0.0453,0.0534,0.0663,0.0694,0.0665,0.0719,0.0721,0.0618,0.0604,0.0682,0.0679,0.0706,0.0705,0.0705,0.0542,0,-0.0404,-0.0449,-0.044,-0.0457,-0.0478,-0.0407,-0.0358,-0.0265,-0.0164,-0.0055,0.0135,0.0264,0.0417,0.0492,0.0557,0.065,0.0646,0.0699,0.0642,0.0639,0.0684,0.0675,0.0688,0.0555,0.0533,0.0532,0.053,0,-0.0449,-0.0471,-0.0518,-0.0516,-0.0519,-0.0511,-0.0448,-0.0392,-0.0247,-0.0162,-0.0011,0.0124,0.0271,0.0366,0.0481,0.0498,0.0539,0.0586,0.0581,0.0667,0.0704,0.0562,0.054,0.0515,0.0517,0.0518,0.0519,0,-0.0496,-0.052,-0.0562,-0.0564,-0.0552,-0.0535,-0.0508,-0.0409,-0.0352,-0.0239,-0.019,-0.0019,0.0087,0.0166,0.036,0.0381,0.0424,0.0459,0.0545,0.0546,0.0556,0.0562,0.0477,0.0477,0.0477,0.0478,0.0478,0,-0.0544,-0.0569,-0.0586,-0.0606,-0.0625,-0.06,-0.0592,-0.053,-0.0452,-0.0388,-0.0243,-0.0149,0.0044,0.0148,0.0259,0.0394,0.0348,0.0515,0.0525,0.0537,0.0544,0.053,0.0539,0.0472,0.0473,0.0474,0.0475,0,-0.0594,-0.0609,-0.0648,-0.0654,-0.0655,-0.0666,-0.0639,-0.062,-0.0555,-0.0485,-0.0445,-0.0261,-0.0128,0.0038,0.0162,0.0286,0.038,0.0432,0.041,0.0425,0.0482,0.049,0.0428,0.043,0.0431,0.0433,0.0434,0,-0.0627,-0.066,-0.069,-0.0709,-0.0714,-0.0722,-0.0716,-0.0662,-0.0635,-0.0514,-0.0472,-0.0329,-0.0159,0.0033,0.0228,0.0352,0.0394,0.0436,0.0524,0.0469,0.0483,0.0489,0.0495,0.0464,0.0465,0.0466,0.0467,0,-0.0679,-0.0691,-0.0721,-0.0761,-0.0775,-0.0783,-0.0769,-0.076,-0.0676,-0.0603,-0.0463,-0.0335,-0.011,0.0112,0.03,0.0391,0.0419,0.0462,0.0398,0.0523,0.0504,0.0519,0.0522,0.0475,0.0475,0.0474,0.0473,0.0473,-0.0703,-0.0735,-0.0773,-0.0804,-0.082,-0.0822,-0.0817,-0.0771,-0.0706,-0.0552,-0.0445,-0.0226,-0.0051,0.0267,0.0391,0.0501,0.0499,0.0541,0.0536,0.053,0.0612,0.0605,0.0601,0.0601,0.0601,0.0601,0.0601,0,-0.0731,-0.0768,-0.0807,-0.0838,-0.0854,-0.0852,-0.0831,-0.0789,-0.0692,-0.0496,-0.0324,-0.0105,0.0137,0.0295,0.0494,0.0605,0.058,0.0611,0.0566,0.0559,0.0552,0.0634,0.0628,0.0628,0.0628,0.0628,0,0,-0.0747,-0.08,-0.0819,-0.0853,-0.0869,-0.0866,-0.0849,-0.0755,-0.0611,-0.0394,-0.0208,0.0012,0.0199,0.0333,0.0464,0.0565,0.0532,0.0566,0.0541,0.047,0.0461,0.0517,0.0638,0,0,0,0,0]}],[{"header":{"parameterUnit":"m.s-1","parameterCategory":2,"la1":30.2991,"la2":30.254,"lo1":-89.0895,"lo2":-89.0444,"dy":0.0017,"dx":0.0017,"nx":28,"ny":28,"refTime":"2025-08-17T21:00:00:Z","depth":"4","parameterNumber":2,"parameterNumberName":"U-component_of_CURRENTS"},"data":[0,0,0,0,0,0,0,0,0,0,0,0,0,0,0,0,0,0,0,0,0,0,0,0,0,0,0,0,0,0,0,0,0,0,0,0,0,0,0,0,0,0,0,0,0,0,0,0,0,0,0,0,0,0,0,0,0,0,-0.115,-0.1151,0,-0.1226,-0.1227,-0.1228,-0.1247,-0.1247,-0.1246,-0.1246,-0.1273,-0.1274,-0.1275,0,0,0,0,0,0,0,0,0,0,0,0,0,-0.1045,-0.1046,-0.115,-0.1151,-0.1153,-0.1226,-0.1227,-0.1228,-0.1247,-0.1247,-0.1246,-0.1246,-0.1273,-0.1274,-0.1275,0,0,0,0,0,0,0,0,0,0,0,0,0,-0.11,-0.1047,-0.115,-0.1173,-0.1176,-0.1226,-0.1227,-0.1228,-0.1247,-0.1247,-0.1246,-0.1246,-0.1273,-0.1274,-0.1275,-0.1289,0,0,-0.128,-0.128,0,0,0,0,0,0,0,0,-0.1096,-0.1103,-0.1169,-0.1172,-0.1175,-0.123,-0.12,-0.1247,-0.1247,-0.1217,-0.1246,-0.1246,-0.1257,-0.1259,-0.127,-0.1291,-0.1292,-0.128,-0.128,-0.1281,-0.1281,0,0,0,0,0,0,0,-0.1092,-0.11,-0.1177,-0.117,-0.1174,-0.1189,-0.1195,-0.1209,-0.1234,-0.1219,-0.1222,-0.1235,-0.1258,-0.1269,-0.1271,-0.1292,-0.128,-0.1281,-0.1282,-0.1282,-0.1373,-0.1375,0,0,0,0,0,0,-0.1089,-0.1096,-0.1175,-0.118,-0.1138,-0.1191,-0.1198,-0.121,-0.1235,-0.124,-0.1236,-0.1236,-0.1267,-0.1269,-0.1272,-0.1319,-0.1281,-0.1282,-0.1283,-0.1372,-0.1374,-0.1376,0,0,0,0,0,0,-0.1086,-0.1095,-0.1172,-0.1142,-0.1153,-0.1193,-0.1206,-0.1212,-0.1239,-0.1248,-0.1252,-0.1259,-0.1267,-0.127,-0.1295,-0.1319,-0.1283,-0.1284,-0.137,-0.1372,-0.1375,-0.1393,0,0,0,0,0,0,-0.1083,-0.1094,-0.1104,-0.1142,-0.1155,-0.1206,-0.1207,-0.1213,-0.1248,-0.125,-0.1269,-0.1271,-0.1267,-0.1293,-0.1296,-0.132,-0.1285,-0.1368,-0.1371,-0.1374,-0.1391,-0.1396,-0.1401,0,0,0,0,0,-0.1079,-0.1093,-0.1104,-0.1114,-0.1167,-0.1207,-0.1214,-0.1239,-0.125,-0.1262,-0.1277,-0.1271,-0.1315,-0.1295,-0.1299,-0.1323,-0.1366,-0.137,-0.1374,-0.1388,-0.1395,-0.1401,0,0,0,0,0,0,-0.1054,-0.1098,-0.1111,-0.1138,-0.1173,-0.1211,-0.1232,-0.1251,-0.1276,-0.1282,-0.1285,-0.1288,-0.132,-0.1324,-0.1302,-0.1362,-0.1343,-0.1347,-0.1353,-0.1359,-0.1364,-0.1353,-0.1286,0,0,0,0,0,-0.1055,-0.1072,-0.1119,-0.1139,-0.1162,-0.1202,-0.1224,-0.1245,-0.1272,-0.1284,-0.1299,-0.1319,-0.1338,-0.1349,-0.1365,-0.1394,-0.1389,-0.1416,-0.1421,-0.1425,-0.1422,-0.1439,-0.1445,-0.1387,-0.1387,-0.1387,0,0,-0.105,-0.1077,-0.1087,-0.1135,-0.1167,-0.1203,-0.1214,-0.1257,-0.1283,-0.1282,-0.1322,-0.1337,-0.1351,-0.1381,-0.1397,-0.1387,-0.1441,-0.143,-0.1433,-0.1427,-0.1443,-0.1449,-0.1453,-0.139,-0.1389,-0.1389,0,0,-0.105,-0.1079,-0.1097,-0.1132,-0.1187,-0.1214,-0.1231,-0.1283,-0.1303,-0.1342,-0.135,-0.1371,-0.1411,-0.1415,-0.1424,-0.1469,-0.1467,-0.1493,-0.1507,-0.1525,-0.1529,-0.1532,-0.153,-0.1534,-0.1495,-0.1495,-0.1495,0,-0.1046,-0.1077,-0.1109,-0.1143,-0.1176,-0.1221,-0.1256,-0.1286,-0.1336,-0.1351,-0.1358,-0.1414,-0.1421,-0.1449,-0.1467,-0.1476,-0.1488,-0.1478,-0.1529,-0.1532,-0.1536,-0.1533,-0.1536,-0.1497,-0.1496,-0.1496,-0.1496,0,-0.1058,-0.1096,-0.1116,-0.117,-0.1204,-0.1246,-0.1295,-0.1327,-0.1361,-0.1386,-0.1429,-0.1443,-0.1471,-0.1487,-0.149,-0.1528,-0.1529,-0.153,-0.1506,-0.1542,-0.1537,-0.154,-0.1498,-0.1498,-0.1498,-0.1497,0,0,-0.1019,-0.1108,-0.1116,-0.1151,-0.1227,-0.1255,-0.1303,-0.1352,-0.1386,-0.1424,-0.1462,-0.1489,-0.1502,-0.1514,-0.1527,-0.1544,-0.1573,-0.1556,-0.1557,-0.154,-0.1611,-0.1477,-0.1467,-0.1595,-0.1596,-0.1596,-0.1597,0,-0.1025,-0.1085,-0.113,-0.1191,-0.1232,-0.1288,-0.1329,-0.1375,-0.1419,-0.1465,-0.148,-0.1524,-0.1513,-0.1541,-0.1552,-0.1581,-0.1584,-0.1572,-0.1591,-0.1591,-0.1455,-0.1466,-0.1599,-0.1599,-0.1599,-0.16,-0.16,0,-0.1016,-0.1066,-0.1126,-0.1212,-0.1236,-0.1275,-0.1347,-0.1391,-0.1456,-0.1492,-0.1526,-0.1556,-0.1586,-0.1578,-0.1607,-0.161,-0.1608,-0.1615,-0.1616,-0.1482,-0.1461,-0.1558,-0.1605,-0.1605,-0.1605,-0.1604,-0.1604,0,-0.0961,-0.1056,-0.1103,-0.1136,-0.1241,-0.1271,-0.132,-0.1392,-0.144,-0.1513,-0.1557,-0.1592,-0.1623,-0.1634,-0.1633,-0.1642,-0.1658,-0.1665,-0.153,-0.1521,-0.1634,-0.163,-0.1668,-0.1668,-0.1668,-0.1668,-0.1668,0,-0.0938,-0.0981,-0.1084,-0.1115,-0.1172,-0.1248,-0.1313,-0.1364,-0.1455,-0.1504,-0.1566,-0.1599,-0.1646,-0.1658,-0.165,-0.1583,-0.1662,-0.1522,-0.1509,-0.1643,-0.164,-0.1635,-0.1632,-0.1668,-0.1668,-0.1668,-0.1668,0,-0.0871,-0.0943,-0.1008,-0.1118,-0.1151,-0.1187,-0.1306,-0.1354,-0.1445,-0.1512,-0.154,-0.1621,-0.162,-0.163,-0.1645,-0.1585,-0.1551,-0.1503,-0.1631,-0.1628,-0.1402,-0.14,-0.1361,-0.1356,-0.1352,-0.1349,-0.1346,0,-0.0841,-0.0869,-0.0988,-0.1026,-0.1081,-0.1155,-0.121,-0.1326,-0.1378,-0.1502,-0.1519,-0.1564,-0.1587,-0.1492,-0.1516,-0.1461,-0.1437,-0.1417,-0.1413,-0.1377,-0.137,-0.1374,-0.1377,-0.1339,-0.1338,-0.1337,-0.1336,0,-0.0789,-0.0837,-0.0892,-0.0963,-0.1028,-0.1102,-0.1183,-0.1216,-0.1341,-0.1439,-0.1453,-0.1444,-0.1428,-0.1406,-0.1357,-0.1326,-0.1436,-0.1374,-0.1383,-0.1379,-0.1351,-0.1348,-0.1356,-0.1322,-0.1324,-0.1325,-0.1326,0,-0.0745,-0.0764,-0.0834,-0.0889,-0.0969,-0.1019,-0.108,-0.1137,-0.1202,-0.1334,-0.1328,-0.1362,-0.1417,-0.1334,-0.13,-0.1241,-0.1223,-0.1194,-0.1212,-0.1228,-0.1178,-0.1122,-0.1001,0,0,0,0,0,-0.069,-0.0706,-0.0754,-0.082,-0.0895,-0.0939,-0.1051,-0.1118,-0.1233,-0.1206,-0.1265,-0.1238,-0.1188,-0.121,-0.1114,-0.1221,-0.122,-0.1107,-0.1197,-0.1243,-0.126,-0.1209,0,0,0,0,0,0,-0.0657,-0.0694,-0.0722,-0.0746,-0.0774,-0.0852,-0.0919,-0.1004,-0.0997,-0.1105,-0.1078,-0.1151,-0.1111,-0.1205,-0.1083,-0.1083,-0.1113,-0.1127,-0.1123,-0.1234,-0.1249,-0.1262,-0.1216,0,0,0,0,0]},{"header":{"parameterUnit":"m.s-1","parameterCategory":2,"la1":30.2991,"la2":30.254,"lo1":-89.0895,"lo2":-89.0444,"dy":0.0017,"dx":0.0017,"nx":28,"ny":28,"refTime":"2025-08-17T21:00:00:Z","depth":"4","parameterNumber":3,"parameterNumberName":"V-component_of_CURRENTS"},"data":[0,0,0,0,0,0,0,0,0,0,0,0,0,0,0,0,0,0,0,0,0,0,0,0,0,0,0,0,0,0,0,0,0,0,0,0,0,0,0,0,0,0,0,0,0,0,0,0,0,0,0,0,0,0,0,0,0,0,-0.0226,-0.0226,0,-0.0214,-0.0214,-0.0214,-0.0179,-0.0178,-0.0177,-0.0176,-0.0151,-0.0151,-0.0152,0,0,0,0,0,0,0,0,0,0,0,0,0,-0.0206,-0.0207,-0.0227,-0.0226,-0.0226,-0.0215,-0.0214,-0.0214,-0.0179,-0.0178,-0.0177,-0.0176,-0.0151,-0.0151,-0.0152,0,0,0,0,0,0,0,0,0,0,0,0,0,-0.0207,-0.0207,-0.0227,-0.0207,-0.0205,-0.0215,-0.0214,-0.0214,-0.0179,-0.0178,-0.0177,-0.0176,-0.0151,-0.0151,-0.0152,-0.0177,0,0,-0.0152,-0.0152,0,0,0,0,0,0,0,0,-0.0207,-0.0208,-0.021,-0.0208,-0.0206,-0.0196,-0.0198,-0.0201,-0.018,-0.019,-0.0176,-0.0175,-0.0166,-0.0165,-0.0166,-0.0176,-0.0175,-0.0152,-0.0152,-0.0152,-0.0152,0,0,0,0,0,0,0,-0.0207,-0.0208,-0.0222,-0.021,-0.0207,-0.0194,-0.0193,-0.0198,-0.0185,-0.0189,-0.0186,-0.0184,-0.0164,-0.0166,-0.0165,-0.0175,-0.0152,-0.0152,-0.0152,-0.0152,-0.0197,-0.0198,0,0,0,0,0,0,-0.021,-0.0209,-0.0223,-0.0222,-0.0203,-0.0195,-0.0194,-0.0201,-0.0185,-0.0181,-0.0185,-0.0182,-0.0166,-0.0165,-0.0164,-0.0184,-0.0152,-0.0152,-0.0152,-0.0196,-0.0197,-0.0198,0,0,0,0,0,0,-0.021,-0.0212,-0.0223,-0.0214,-0.0214,-0.0197,-0.0205,-0.0202,-0.0198,-0.0182,-0.0178,-0.0184,-0.0165,-0.0164,-0.0171,-0.0183,-0.0152,-0.0153,-0.0194,-0.0196,-0.0197,-0.023,0,0,0,0,0,0,-0.0209,-0.0212,-0.0219,-0.0214,-0.0215,-0.0234,-0.0206,-0.0202,-0.0199,-0.0195,-0.0181,-0.0177,-0.0164,-0.0171,-0.0172,-0.0183,-0.0153,-0.0193,-0.0195,-0.0197,-0.0228,-0.0233,-0.0237,0,0,0,0,0,-0.0209,-0.0227,-0.022,-0.0222,-0.0226,-0.0235,-0.0235,-0.0218,-0.02,-0.0208,-0.0196,-0.0177,-0.0184,-0.0173,-0.0172,-0.0184,-0.0192,-0.0194,-0.0197,-0.0226,-0.0232,-0.0237,0,0,0,0,0,0,-0.0219,-0.0225,-0.0217,-0.0235,-0.0236,-0.0229,-0.0234,-0.0222,-0.022,-0.0213,-0.0193,-0.019,-0.0204,-0.0194,-0.0181,-0.0204,-0.0185,-0.0187,-0.0207,-0.0212,-0.0217,-0.02,-0.0153,0,0,0,0,0,-0.0227,-0.0243,-0.0241,-0.0255,-0.0256,-0.0246,-0.0246,-0.0237,-0.0232,-0.0229,-0.0222,-0.0215,-0.0217,-0.0213,-0.0218,-0.023,-0.0182,-0.0238,-0.0242,-0.0246,-0.0234,-0.0179,-0.0176,-0.0206,-0.0206,-0.0206,0,0,-0.0234,-0.0239,-0.0247,-0.0259,-0.0256,-0.0269,-0.0243,-0.0249,-0.0257,-0.0229,-0.0241,-0.0236,-0.0227,-0.0241,-0.0245,-0.0229,-0.0213,-0.0249,-0.0252,-0.0237,-0.0181,-0.0178,-0.0175,-0.0208,-0.0207,-0.0207,0,0,-0.0259,-0.0262,-0.0283,-0.0289,-0.0292,-0.0287,-0.029,-0.0289,-0.0284,-0.0298,-0.0279,-0.0276,-0.0286,-0.0274,-0.0269,-0.0303,-0.0245,-0.0312,-0.0312,-0.026,-0.0256,-0.0252,-0.0179,-0.0168,-0.0306,-0.0306,-0.0306,0,-0.0265,-0.0293,-0.029,-0.031,-0.0318,-0.0297,-0.0318,-0.0316,-0.0318,-0.0312,-0.0306,-0.0302,-0.0298,-0.0293,-0.0304,-0.0311,-0.0262,-0.029,-0.0262,-0.0258,-0.0253,-0.0179,-0.0167,-0.0308,-0.0308,-0.0308,-0.0307,0,-0.0306,-0.0326,-0.0339,-0.0359,-0.0367,-0.0383,-0.0378,-0.0381,-0.0371,-0.036,-0.0358,-0.0347,-0.0333,-0.0341,-0.0331,-0.0306,-0.0275,-0.0279,-0.0241,-0.0251,-0.0174,-0.016,-0.0311,-0.031,-0.0309,-0.0309,0,0,-0.0323,-0.0361,-0.0365,-0.038,-0.0395,-0.0404,-0.0416,-0.0417,-0.0408,-0.0405,-0.0387,-0.0393,-0.0365,-0.0358,-0.0343,-0.0299,-0.0228,-0.0272,-0.0269,-0.0187,-0.0086,-0.0101,-0.0087,-0.0221,-0.0219,-0.0218,-0.0041,0,-0.0353,-0.0403,-0.0413,-0.0451,-0.0472,-0.0462,-0.0473,-0.0467,-0.045,-0.0429,-0.0395,-0.038,-0.0377,-0.0361,-0.032,-0.0252,-0.0195,-0.0274,-0.01,-0.0094,-0.0095,-0.0074,-0.0212,-0.0031,-0.0028,-0.0025,-0.0024,0,-0.0388,-0.0416,-0.0467,-0.0491,-0.0498,-0.0516,-0.0513,-0.0519,-0.0481,-0.0462,-0.0425,-0.0389,-0.0327,-0.0325,-0.019,-0.0236,-0.0161,-0.0105,-0.0097,-0.0087,-0.0084,-0.0022,0.0002,-0.0,-0.0002,-0.0004,-0.0005,0,-0.0403,-0.0449,-0.0491,-0.0504,-0.0531,-0.0543,-0.0548,-0.0529,-0.0521,-0.0469,-0.0437,-0.0368,-0.0311,-0.0221,-0.0116,-0.0137,0.0046,0.0032,0.0094,0.0096,0.0073,0.0066,0.0136,0.0136,0.0136,0.0135,0.0135,0,-0.0432,-0.0462,-0.0502,-0.0526,-0.0557,-0.0564,-0.0578,-0.0566,-0.0532,-0.0503,-0.0449,-0.0389,-0.028,-0.0171,-0.0087,0.0052,0.0075,0.0114,0.014,0.0054,0.0043,0.0084,0.0075,0.0142,0.014,0.0139,0.0138,0,-0.0444,-0.0476,-0.0522,-0.056,-0.0571,-0.0592,-0.0603,-0.0601,-0.0563,-0.0515,-0.049,-0.0374,-0.0227,-0.012,0.0052,0.0098,0.022,0.026,0.0184,0.0201,0.0237,0.0224,0.037,0.0371,0.0371,0.0372,0.0373,0,-0.0458,-0.0486,-0.0545,-0.0573,-0.0596,-0.0624,-0.0638,-0.0621,-0.0605,-0.0498,-0.0462,-0.0312,-0.023,0.0026,0.0115,0.0287,0.0285,0.0354,0.0271,0.025,0.0261,0.0247,0.0234,0.0374,0.0374,0.0374,0.0375,0,-0.0476,-0.0501,-0.0538,-0.0596,-0.0629,-0.0656,-0.0666,-0.0648,-0.0601,-0.0564,-0.04,-0.0267,-0.0101,0.0056,0.018,0.029,0.0309,0.0363,0.0361,0.0284,0.0257,0.0264,0.025,0.0377,0.0377,0.0377,0.0377,0,-0.0483,-0.0512,-0.0564,-0.0609,-0.0654,-0.0669,-0.0673,-0.0623,-0.0589,-0.0464,-0.0401,-0.0222,-0.0112,0.0062,0.0178,0.0279,0.0293,0.0306,0.0308,0.0306,0.0202,0.0153,0.0285,0,0,0,0,0,-0.0483,-0.052,-0.057,-0.0622,-0.0666,-0.0689,-0.0683,-0.0673,-0.0616,-0.0497,-0.0444,-0.0283,-0.0068,0.0034,0.0138,0.0154,0.0274,0.0273,0.0281,0.0393,0.039,0.0273,0,0,0,0,0,0,-0.0487,-0.0538,-0.0569,-0.0622,-0.0657,-0.0694,-0.069,-0.0652,-0.0574,-0.0493,-0.0368,-0.0282,-0.0076,-0.0128,0.0134,0.0165,0.0179,0.0377,0.0379,0.0395,0.0392,0.0389,0.0269,0,0,0,0,0]}]]